SL-19 DEB, 24679

Orbit data source: Space-Track

SL-19 DEB, 24679 is space debris in LEO originally from a launch on Mon, 26 Dec 1994 UTC launched from the Tyuratam Missile And Space Complex (TTMTR). Debris objects in space refer to the collection of defunct objects orbiting the Earth. Examples of debris include non-operational satellites, rocket bodies, and fragments generated from explosions, collisions, or faulty payload assembly.

Loading next visibility...
Identifier
24679, 1994-085Y
Orbit
LEO
Country
Flag of CISCIS
Related business
Manufacturer
Unknown
Mission
Spacecraft
Bus & Motor
Unknown
Mass
Unknown
Launch date (UTC)
1994-12-26 (31 years ago)
Launch vehicle
Unknown
Launch site
Tyuratam Missile And Space Complex (TTMTR)
Object type
Payload
Rocket body
Debris
Shape & HBR
Unknown shape, 0.1 m
Radar Cross Section
Small (<0.1 m²)

Expand to show TLE details & history
Last TLE update: 2 days ago

TLE from 2 days ago
0 SL-19 DEB
1 24679U 94085Y   26038.14315956 -.00000050  00000-0 -19913-3 0  9990
2 24679  64.9827  90.2919 0176801 131.1065 261.2566 11.32313238451472
Epoch: 2026-02-07T03:26Z
TLE epoch observation values (Epoch: 2026-02-07T03:26:08.985Z)
Latitude
27.31439°
Longitude
-84.63547°
Altitude
2,026.169 km
Speed
6.88 km/s
True Right ascension
06h 56m 41s
True Declination
27° 11' 44"
Sunlit
Object was in full shadow at epoch
Visualization orbit readout
Latitude
Unknown
Longitude
Unknown
Altitude
Unknown
Speed
Unknown
Apparent Right ascension
Unknown
Apparent Declination
Unknown
Sunlit
N/A
Visualization observer readout
Local Sidereal Time
10:14:05
Azimuth
Unknown
Elevation
Unknown
Doppler factor
Unknown
Orbital elements
Apogee altitude
2,145.779 km
Perigee altitude
1,849.608 km
Semi-major axis
8,375.83 km
Eccentricity
0.01768
Inclination
64.9827°
RAAN
90.2919°
Arg. of periapsis
131.1065°
True anomaly
259.26126°
Mean anomaly
261.2566°
Eccentric anomaly
260.25821°
Mean motion
2.8314 °/min
Orbital period
127.15 mins
BSTAR
-0.00019913
Loading maneuver chart data...
Computing Atmospheric mass density...
Loading historical data...
Loading historical data...
Loading historical data...
Loading historical data...
Loading historical data...
Loading historical data...
Loading historical data...

Documentation

Showing up to 5 results
|